This demonstration page uses our WeatherBlox Daily Observations layout. Learn more.

Left ArrowRight Arrow

Hourly Observations for April 30, 2015

Temp ( °F °C ) Dew Point ( °F °C ) Humidity (%) Winds ( mph kmh ) Pressure ( in mb ) Visibility ( mi km ) Precip ( " mm )
12:53 am 00:53 Clear 52 11.1 25 -3.9 35 35 S 6 9 29.93 1014 10 16 0.00 0.00
1:53 am 01:53 Clear 51 10.6 24 -4.4 35 35 S 5 7 29.93 1013 10 16 0.00 0.00
2:53 am 02:53 Clear 51 10.6 24 -4.4 35 35 SSW 7 11 29.91 1013 10 16 0.00 0.00
3:53 am 03:53 Clear 43 6.1 22 -5.6 43 43 Calm 29.91 1013 10 16 0.00 0.00
4:53 am 04:53 Clear 42 5.6 23 -5 47 47 ENE 3 6 29.91 1013 10 16 0.00 0.00
5:53 am 05:53 Clear 39 3.9 21 -6.1 48 48 ENE 5 7 29.91 1013 10 16 0.00 0.00
6:53 am 06:53 Clear 37 2.8 21 -6.1 52 52 N 7 11 29.92 1013 10 16 0.00 0.00
7:53 am 07:53 Sunny 42 5.6 24 -4.4 49 49 Calm 29.93 1014 10 16 0.00 0.00
8:53 am 08:53 Mostly Sunny 55 12.8 29 -1.7 37 37 SSE 7 11 29.94 1014 10 16 0.00 0.00
9:53 am 09:53 Sunny 62 16.7 30 -1.1 30 30 VRB 3 6 29.95 1014 10 16 0.00 0.00
10:53 am 10:53 Sunny 70 21.1 31 -0.6 23 23 S 6 9 29.93 1014 10 16 0.00 0.00
11:53 am 11:53 Sunny 76 24.4 26 -3.3 16 16 S 12 19 29.93 1013 10 16 0.00 0.00
12:53 pm 12:53 Sunny 79 26.1 23 -5 12 12 SE 12 19 29.91 1013 10 16 0.00 0.00
1:53 pm 13:53 Sunny 81 27.2 21 -6.1 11 11 ESE 10 17 29.89 1012 10 16 0.00 0.00
2:53 pm 14:53 Sunny 81 27.2 20 -6.7 10 10 VRB 3 6 29.87 1011 10 16 0.00 0.00
3:53 pm 15:53 Sunny 82 27.8 20 -6.7 10 10 undefined N/A 29.85 1011 10 16 0.00 0.00
4:53 pm 16:53 Sunny 84 28.9 19 -7.2 9 9 E 12 19 29.83 1010 10 16 0.00 0.00
5:53 pm 17:53 Sunny 84 28.9 18 -7.8 8 8 undefined N/A 29.83 1010 10 16 0.00 0.00
6:53 pm 18:53 Sunny 83 28.3 17 -8.3 8 8 ESE 8 13 29.83 1010 10 16 0.00 0.00
7:53 pm 19:53 Sunny 81 27.2 18 -7.8 9 9 ESE 7 11 29.83 1010 10 16 0.00 0.00
8:53 pm 20:53 Clear 72 22.2 20 -6.7 14 14 ESE 7 11 29.83 1010 10 16 0.00 0.00
9:53 pm 21:53 Clear 70 21.1 20 -6.7 15 15 ESE 10 17 29.84 1010 10 16 0.00 0.00
10:53 pm 22:53 Clear 67 19.4 24 -4.4 20 20 SE 10 17 29.84 1011 10 16 0.00 0.00
11:53 pm 23:53 Clear 63 17.2 24 -4.4 23 23 SE 10 17 29.85 1011 10 16 0.00 0.00

Powered by AerisWeather